User: anonymous   Login
Location: Unspecified
(0.0000°N, 0.0000°E)
Time: 07:49:41
(UTC+00:00)
Language:

ESSA 5 - Orbit

View from above orbital plane
View from above orbital plane
View from above satellite
View from above satellite

Ground track
Ground track

The orbit data is extracted from the following two-line orbital elements,

1  2757U 67036A   18112.80787285 -.00000059 +00000-0 -57272-4 0  9994
2  2757 101.8672 173.2531 0042972 008.5776 101.1772 12.68498381361455
Epoch (UTC): 22 April 2018 19:23:20
Eccentricity: 0.0042972
inclination: 101.8672°
perigee height: 1354 km
apogee height: 1421 km
right ascension of ascending node: 173.2531°
argument of perigee: 8.5776°
revolutions per day: 12.68498381
mean anomaly at epoch: 101.1772°
orbit number at epoch: 36145

The dashed part of the orbit path shows where the satellite is in the earth's shadow,  

DLR